This is the latest recevied weather packets stored in our database for station/object HB9HFD-13. If no packets are shown the sender has not sent any weather packets the latest 10 day(s).
| Time | Temp. | Humidity | Pressure | Rain* | Wind** | Luminosity | Snow |
|---|---|---|---|---|---|---|---|
| 1787849489 | 27.78° C | 55% | 1008.9 hPa | 0 mm | - | - | - |
| 1787849189 | 28.33° C | 57% | 1008.9 hPa | 0 mm | - | - | - |
| 1787848889 | 28.89° C | 56% | 1008.9 hPa | 0 mm | - | - | - |
| 1787848588 | 28.89° C | 52% | 1008.9 hPa | 0 mm | - | - | - |
| 1787848288 | 28.89° C | 51% | 1008.9 hPa | 0 mm | - | - | - |
| 1787847988 | 28.89° C | 51% | 1008.9 hPa | 0 mm | - | - | - |
| 1787847688 | 28.89° C | 53% | 1009 hPa | 0 mm | - | - | - |
| 1787847387 | 28.89° C | 54% | 1009.1 hPa | 0 mm | - | - | - |
| 1787847087 | 29.44° C | 54% | 1009.1 hPa | 0 mm | - | - | - |
| 1787846787 | 29.44° C | 55% | 1009.2 hPa | 0 mm | - | - | - |
| 1787846487 | 29.44° C | 55% | 1009.2 hPa | 0 mm | - | - | - |
| 1787846186 | 29.44° C | 56% | 1009.3 hPa | 0 mm | - | - | - |
| 1787845886 | 29.44° C | 57% | 1009.3 hPa | 0 mm | - | - | - |
| 1787845586 | 29.44° C | 56% | 1009.4 hPa | 0 mm | - | - | - |
| 1787845286 | 30° C | 55% | 1009.3 hPa | 0 mm | - | - | - |
| 1787844985 | 30.56° C | 52% | 1009.3 hPa | 0 mm | - | - | - |
| 1787844685 | 30.56° C | 45% | 1009.3 hPa | 0 mm | - | - | - |
| 1787844385 | 30.56° C | 45% | 1009.3 hPa | 0 mm | - | - | - |
| 1787844084 | 30.56° C | 44% | 1009.3 hPa | 0 mm | - | - | - |
| 1787843784 | 31.11° C | 44% | 1009.2 hPa | 0 mm | - | - | - |
| 1787843484 | 31.67° C | 42% | 1009.4 hPa | 0 mm | - | - | - |
| 1787843184 | 31.67° C | 43% | 1009.5 hPa | 0 mm | - | - | - |
| 1787842883 | 31.67° C | 39% | 1009.6 hPa | 0 mm | - | - | - |
| 1787842583 | 31.67° C | 42% | 1009.6 hPa | 0 mm | - | - | - |
| 1787842283 | 31.67° C | 42% | 1009.7 hPa | 0 mm | - | - | - |
* Rain latest hour (hover to see other rain measurements)
** Current wind speed in m/s (hover to see current wind gust speed)